Location: ?????????
(38.0736°N, 23.2119°E)
Time: 04:08:32
(UTC+00:00)

USA 229 - Pass Details

Date: 18 April 2024
Orbit: 890 x 1322 km, 63.4° (Epoch: 18 May)

Event Time Altitude Azimuth Distance (km) Brightness Sun altitude
Rises 18:01:50 0° 181° (S) 3,492 6.2 -11.1°
Reaches altitude 10° 18:04:33 10° 170° (S) 2,578 5.4 -11.6°
Maximum altitude 18:09:40 30° 111° (ESE) 1,611 4.1 -12.5°
Drops below altitude 10° 18:15:06 10° 52° (NE) 2,760 5.6 -13.5°
Sets 18:18:06 0° 43° (NE) 3,781 6.4 -14.0°
